STARLINK-4084 (52657 NORAD) Tracking and Keplerian Element Data

This shows tracking and keplerian element data for the satellite.

Feedback or suggestion? Click here.




ElementValue
Catalog52657
NameSTARLINK-4084
Epoch Orbit964
Epoch Day193.25001157
Epoch Year2022
RAAN33.8449
Inclination53.2172
Eccentricity0.00012
Argument of Perigee69.7139
Mean Anonmoly272.4388
Mean Motion15.20311385
Decay Rate-0.0077293
L11 52657U 22053B 22193.25001157 -.00772930 00000+0 -37872-1 0 9992
L22 52657 53.2172 33.8449 0001200 69.7139 272.4388 15.20311385 9648

Live tracking and technical data element details for STARLINK-4084 (NORAD 52657). STARLINK-4084 can be tracked NOW for your location showing map with azimuth and elevation plus other details from your city location.

Track the satellite on the map from your city or location and see movement details for azimuth, elevation, latitude, longitude, range, height, and movement on the map or in text.







IsCatalogInMostPopularTable: catalog: 52657, numindb: 6
Update: records affected: 1



GetName: 52657 STARLINK-4084

Hit Count: updated at: Sun, 14 Aug 2022 00:58:22 GMT